Regional Weather Roundup
Issued by NWS Sioux Falls, SD

Home | Current Version | Previous Version | Graphics & Text | Print | Product List | Glossary Off
Versions: 1 2 3 4 5 6 7 8 9 10 11 12 13 14 15 16 17 18 19 20 21 22 23 24 25 26 27 28 29 30 31 32 33 34 35 36 37 38 39 40 41 42 43 44 45 46 47 48 49 50

000
ASUS43 KFSD 212002
RWRFSD

WEATHER ROUNDUP FOR SE SOUTH DAKOTA/SW MINNESOTA/NW IOWA
NATIONAL WEATHER SERVICE SIOUX FALLS SD
300 PM CDT THU AUG 21 2014

NOTE: "FAIR" INDICATES FEW OR NO CLOUDS BELOW 12,000 FEET WITH NO
SIGNIFICANT WEATHER AND OR OBSTRUCTIONS TO VISIBILITY.


SDZ038>040-050-052>070-212100-
SOUTHEAST SOUTH DAKOTA

CITY           SKY/WX    TMP DP  RH WIND       PRES   REMARKS
CHAMBERLAIN    SUNNY     81  65  58 N12       29.86S
HURON          SUNNY     86  67  52 NW13      29.80S
MADISON        FAIR      84  72  65 NW13      29.83R
MITCHELL       MOSUNNY   87  69  54 VRB6      29.82R
SIOUX FALLS    MOSUNNY   90  75  61 NW10      29.79R HX 100
WINNER         FAIR      88  62  41 N12       29.89R
YANKTON        SUNNY     86  73  66 W9        29.80R
$$

MNZ071-072-080-081-089-090-097-098-212100-
SOUTHWEST MINNESOTA

CITY           SKY/WX    TMP DP  RH WIND       PRES   REMARKS
FAIRMONT       SUNNY     86  66  51 MISG      29.79S
JACKSON        SUNNY     86  68  54 SW15G21   29.80S
LUVERNE        MOSUNNY   88  73  62 W8        29.80R HX  96
MARSHALL       MOSUNNY   88  72  58 N14       29.76S
MONTEVIDEO     PTSUNNY   84  75  74 N5        29.78R
PIPESTONE      MOSUNNY   86  73  66 NW12      29.81R
REDWOOD FALLS  CLOUDY    86  75  69 NW7       29.76R HX  95
TRACY          PTSUNNY   87  77  71 N5        29.77S HX  99
WINDOM         SUNNY     86  72  62 SW15      29.79R
WORTHINGTON    MOSUNNY   84  23  10 SW12G18   29.82R
$$

IAZ001>003-012>014-020>022-031-032-NEZ013-014-SDZ071-212100-
NORTHWEST IOWA

CITY           SKY/WX    TMP DP  RH WIND       PRES   REMARKS
CHEROKEE       MOSUNNY   86  74  68 SW9       29.81S
DENISON        MOSUNNY   86  73  66 SW8G15    29.82R
ESTHERVILLE    SUNNY     85  72  65 SW14G23   29.80R
LE MARS        SUNNY     88  75  66 SW10      29.80S HX  97
ORANGE CITY    SUNNY     88  72  58 SW9       29.81R
SHELDON        SUNNY     84  75  74 SW13      29.80R
SIOUX CITY     MOSUNNY   90  75  61 VRB7      29.80S HX 100
SPENCER        SUNNY     86  72  62 SW10G20   29.80S
STORM LAKE     MOSUNNY   84  77  79 SW10G18   29.84R
$$

ABBREVIATIONS USED IN REMARKS
   TC - TEMPERATURE IN CELSIUS
  WCI - WIND CHILL INDEX
   HX - HEAT INDEX
  VSB - VISIBILITY




USA.gov is the U.S. government's official web portal to all federal, state and local government web resources and services.